FW0127 Weather Reports


time (UTC)temp
C
wind
direction
speed
KPH
gust
KPH
rain 1hr
cm
rain 24hr
cm
rain mn
cm
humidity
%
barometer
mb
20260504191558 23 146 1.6 16.1 0.00 0.00 0.00 40 1012.4
20260504190101 25 326 4.8 11.3 0.00 0.00 0.00 38 1012.6
20260504184604 25 236 3.2 9.7 0.00 0.00 0.00 38 1012.7
20260504183059 25 7 4.8 14.5 0.00 0.00 0.00 38 1012.8
20260504181550 25 103 1.6 11.3 0.00 0.00 0.00 38 1013.2
20260504180048 25 111 1.6 14.5 0.00 0.00 0.00 42 1013.5
20260504174549 25 27 1.6 8.0 0.00 0.00 0.00 37 1013.7
20260504173043 24 135 1.6 6.4 0.00 0.00 0.00 38 1013.8
20260504171544 24 290 1.6 11.3 0.00 0.00 0.00 37 1014.0
20260504081504 7 114 0.0 0.0 0.00 0.00 0.00 80 1016.9
20260504070106 7 114 0.0 0.0 0.00 0.00 0.00 78 1016.9
20260504044557 7 114 0.0 0.0 0.00 0.00 0.00 76 1016.8
20260504043053 7 114 0.0 1.6 0.00 0.00 0.00 79 1016.8
20260504041549 7 113 0.0 0.0 0.00 0.00 0.00 81 1016.5
20260504040043 6 114 0.0 0.0 0.00 0.00 0.00 83 1016.6
20260504034551 6 114 0.0 0.0 0.00 0.00 0.00 84 1016.7
20260504033042 5 114 0.0 0.0 0.00 0.00 0.00 84 1016.7
20260504031542 5 114 0.0 0.0 0.00 0.00 0.00 83 1016.6
20260504030043 5 114 0.0 0.0 0.00 0.00 0.00 81 1016.7
20260504024540 5 114 0.0 0.0 0.00 0.00 0.00 80 1016.6
20260504023040 5 114 0.0 0.0 0.00 0.00 0.00 78 1016.7
20260504021539 5 114 0.0 0.0 0.00 0.00 0.00 77 1016.7
20260504020040 6 114 0.0 0.0 0.00 0.00 0.00 75 1016.5
20260504014551 6 114 0.0 0.0 0.00 0.00 0.00 75 1016.4
20260504013038 6 114 0.0 0.0 0.00 0.00 0.00 73 1016.4
20260504011540 7 114 0.0 0.0 0.00 0.00 0.00 71 1016.3
20260504010038 7 114 0.0 0.0 0.00 0.00 0.00 68 1016.2
20260504004537 8 114 0.0 0.0 0.00 0.00 0.00 66 1016.1
20260504003045 9 114 0.0 0.0 0.00 0.00 0.00 64 1016.0
20260504001536 10 114 0.0 0.0 0.00 0.00 0.00 61 1016.0
20260504000035 11 113 0.0 0.0 0.00 0.00 0.00 59 1015.8
20260503234544 12 113 0.0 0.0 0.00 0.00 0.00 54 1015.6
20260503233034 13 113 0.0 0.0 0.00 0.00 0.00 52 1015.5
20260503231534 14 113 0.0 0.0 0.00 0.00 0.00 45 1015.4
20260503230040 15 114 0.0 1.6 0.00 0.00 0.00 40 1015.3
20260503224532 15 138 0.0 3.2 0.00 0.00 0.00 40 1015.4
20260503223032 16 107 0.0 1.6 0.00 0.00 0.00 37 1015.6
20260503221532 16 127 0.0 3.2 0.00 0.00 0.00 37 1015.7
20260503220043 17 122 0.0 4.8 0.00 0.00 0.00 35 1015.8
20260503214530 18 143 0.0 4.8 0.00 0.00 0.00 35 1015.7
20260503213030 18 133 1.6 6.4 0.00 0.00 0.00 36 1015.8
20260503211530 17 130 0.0 6.4 0.00 0.00 0.00 34 1015.9
20260503210029 18 135 0.0 6.4 0.00 0.00 0.00 35 1016.0
20260503204528 17 166 1.6 6.4 0.00 0.00 0.00 35 1015.9
20260503203030 18 156 0.0 8.0 0.00 0.00 0.00 33 1015.9
20260503201525 17 136 1.6 8.0 0.00 0.00 0.00 37 1016.2
20260503200024 17 277 0.0 8.0 0.00 0.00 0.00 36 1016.4
20260503194523 17 135 3.2 9.7 0.00 0.00 0.00 38 1016.6
20260503193023 17 129 1.6 9.7 0.00 0.00 0.00 35 1016.9